Location: *
(51.8167°N, 12.5000°E)
Time: 06:56:11
(UTC+00:00)

MONITOR-E - Pass Details

Date: 16 September 2019
Orbit: 347 x 349 km, 97.1° (Epoch: 17 October)

Event Time Altitude Azimuth Distance (km) Brightness Sun altitude
Rises 18:11:47 0° 169° (S) 2,165 7.6 -8.2°
Reaches altitude 10° 18:13:42 10° 171° (S) 1,325 6.5 -8.5°
Maximum altitude 18:16:31 75° 258° (WSW) 372 4.1 -8.9°
Drops below altitude 10° 18:19:21 10° 344° (NNW) 1,336 7.3 -9.3°
Sets 18:21:18 0° 346° (NNW) 2,184 8.3 -9.6°
